This is the latest recevied weather packets stored in our database for station/object W0AVQ. If no packets are shown the sender has not sent any weather packets the latest 10 day(s).
| Time | Temp. | Humidity | Pressure | Rain* | Wind** | Luminosity | Snow |
|---|---|---|---|---|---|---|---|
| 1777243428 | 27.78° C | 49% | 1012.6 hPa | 0 mm | - | 204 W/m² | - |
| 1777243124 | 27.78° C | 49% | 1012.7 hPa | 0 mm | - | 234 W/m² | - |
| 1777242821 | 27.78° C | 51% | 1012.7 hPa | 0 mm | - | 242 W/m² | - |
| 1777242518 | 27.78° C | 49% | 1012.8 hPa | 0 mm | - | 272 W/m² | - |
| 1777242213 | 27.78° C | 49% | 1013 hPa | 0 mm | - | 66 W/m² | - |
| 1777241912 | 27.78° C | 49% | 1013 hPa | 0 mm | - | 207 W/m² | - |
| 1777241608 | 27.78° C | 47% | 1012.9 hPa | 0 mm | - | 93 W/m² | - |
| 1777241306 | 27.78° C | 48% | 1013.2 hPa | 0 mm | - | 199 W/m² | - |
| 1777241003 | 27.22° C | 50% | 1012.9 hPa | 0 mm | - | 79 W/m² | - |
| 1777240701 | 27.78° C | 48% | 1012.9 hPa | 0 mm | - | 201 W/m² | - |
| 1777240399 | 27.78° C | 49% | 1012.9 hPa | 0 mm | - | 68 W/m² | - |
| 1777240096 | 27.78° C | 47% | 1012.9 hPa | 0 mm | - | 72 W/m² | - |
| 1777239794 | 27.78° C | 49% | 1013.1 hPa | 0 mm | - | 90 W/m² | - |
| 1777239489 | 27.78° C | 48% | 1012.9 hPa | 0 mm | - | 69 W/m² | - |
| 1777239187 | 27.78° C | 50% | 1012.8 hPa | 0 mm | - | 66 W/m² | - |
| 1777238884 | 28.33° C | 47% | 1013 hPa | 0 mm | - | 70 W/m² | - |
| 1777238581 | 27.78° C | 49% | 1013.1 hPa | 0 mm | - | 65 W/m² | - |
| 1777238277 | 27.78° C | 48% | 1013.2 hPa | 0 mm | - | 68 W/m² | - |
| 1777237975 | 27.78° C | 51% | 1013.2 hPa | 0 mm | - | 72 W/m² | - |
| 1777237670 | 27.78° C | 47% | 1013 hPa | 0 mm | - | 79 W/m² | - |
| 1777237368 | 27.78° C | 48% | 1013.1 hPa | 0 mm | - | 92 W/m² | - |
| 1777237065 | 27.78° C | 51% | 1013.1 hPa | 0 mm | - | 114 W/m² | - |
| 1777236763 | 27.22° C | 51% | 1013.1 hPa | 0 mm | - | 158 W/m² | - |
| 1777236462 | 26.67° C | 49% | 1013.2 hPa | 0 mm | - | 263 W/m² | - |
| 1777236159 | 26.67° C | 49% | 1013.2 hPa | 0 mm | - | 121 W/m² | - |
* Rain latest hour (hover to see other rain measurements)
** Current wind speed in m/s (hover to see current wind gust speed)